"Time","Temp","Dewpoint","Humidity","Pressure","Direction","Speed","Gust","Precip","PrecipRate"
"00:04:59","78.2","71.2","79.3","30.18","165","0.2","1.2","0.00","0.00"
"00:09:56","78","71.3","80","30.18","165","0","0","0.00","0.00"
"00:14:58","77.8","71.1","80","30.18","165","0.1","1.2","0.00","0.00"
"00:19:56","77.7","71.2","80.5","30.18","165","0.3","2.3","0.00","0.00"
"00:24:56","77.5","71.2","81","30.18","165","0","1.2","0.00","0.00"
"00:29:58","77.4","71.1","81","30.18","165","0.3","2.3","0.00","0.00"
"00:34:58","77.3","71","81","30.18","165","0.2","2.3","0.00","0.00"
"00:39:59","77.2","70.9","81","30.18","165","0.2","2.3","0.00","0.00"
"00:44:57","77.2","71","81.4","30.18","165","0.1","2.3","0.00","0.00"
"00:49:58","77","71.1","82","30.18","165","0.1","2.3","0.00","0.00"
"00:54:59","76.9","71","82","30.18","165","0.1","1.2","0.00","0.00"
"00:59:56","76.7","70.9","82.4","30.18","165","1","3.5","0.00","0.00"
"01:04:58","76.6","71","83","30.18","165","0.4","2.3","0.00","0.00"
"01:09:56","76.5","70.9","83","30.18","165","1","3.5","0.00","0.00"
"01:14:56","76.4","70.9","83","30.18","162","1.1","4","0.00","0.00"
"01:19:56","76.3","70.8","83","30.18","161","0.9","3.5","0.00","0.00"
"01:24:56","76.3","70.8","83","30.18","165","0.8","3.5","0.00","0.00"
"01:29:58","76.3","70.8","83","30.18","157","1","4","0.00","0.00"
"01:34:59","76.3","70.8","83","30.18","153","1.6","3.5","0.00","0.00"
"01:39:59","76.2","70.7","83","30.18","151","1.3","3.5","0.00","0.00"
"01:44:57","76.2","70.7","83","30.18","152","1.5","4","0.00","0.00"
"01:49:56","76.3","70.8","83","30.18","143","1","3.5","0.00","0.00"
"01:54:59","76.2","70.7","83","30.18","150","1.9","4","0.00","0.00"
"01:59:57","76.2","70.7","83","30.18","160","1.5","3.5","0.00","0.00"
"02:04:57","76.1","70.6","83","30.18","152","1.5","3.5","0.00","0.00"
"02:09:59","76.1","70.6","83","30.18","141","1.1","4","0.00","0.00"
"02:14:57","76.1","70.6","83","30.18","143","1.6","5","0.00","0.00"
"02:19:56","76","70.7","83.6","30.18","145","1.5","4","0.00","0.00"
"02:24:59","75.9","70.7","84","30.18","129","1.5","5","0.00","0.00"
"02:29:59","75.8","70.6","84","30.18","136","1.7","4","0.00","0.00"
"02:34:57","75.7","70.5","84","30.18","178","1.9","4","0.00","0.00"
"02:39:56","75.6","70.7","84.7","30.18","174","1","3.5","0.00","0.00"
"02:44:57","75.5","70.7","85","30.18","171","1.2","3.5","0.00","0.00"
"02:49:56","75.4","70.6","85","30.18","142","1.4","3.5","0.00","0.00"
"02:54:59","75.3","70.5","85","30.18","144","1.2","3.5","0.00","0.00"
"02:59:59","75.1","70.3","85","30.19","156","1.6","4","0.00","0.00"
"03:04:58","75.1","70.3","85","30.19","155","1.7","5","0.00","0.00"
"03:09:55","75","70.3","85.3","30.19","142","1","4","0.00","0.00"
"03:14:59","75","70.4","85.8","30.19","141","1.3","4","0.00","0.00"
"03:19:59","74.9","70.4","86","30.19","145","0.7","3","0.00","0.00"
"03:24:56","74.9","70.4","86","30.19","157","1.1","4","0.00","0.00"
"03:29:56","74.8","70.3","86","30.19","142","1.9","4","0.00","0.00"
"03:34:58","74.7","70.2","86","30.19","151","1.5","3.5","0.00","0.00"
"03:39:56","74.6","70.1","86","30.19","147","1.7","4","0.00","0.00"
"03:44:59","74.6","70.1","86","30.19","135","1.9","4","0.00","0.00"
"03:49:59","74.5","70","86","30.19","140","1.6","4","0.00","0.00"
"03:54:57","74.4","69.9","86","30.19","157","2.1","6","0.00","0.00"
"03:59:57","74.4","69.9","86","30.19","184","1.4","4","0.00","0.00"
"04:04:56","74.3","70.2","87","30.19","154","1.5","3.5","0.00","0.00"
"04:09:58","74.2","70.1","87","30.19","173","1.6","4","0.00","0.00"
"04:14:56","74.1","70","87","30.20","174","0.9","3.5","0.00","0.00"
"04:19:57","74","69.9","87","30.20","173","0.9","3.5","0.00","0.00"
"04:24:56","73.9","69.8","87","30.20","173","1","3.5","0.00","0.00"
"04:29:56","73.8","69.8","87.3","30.20","173","1.4","4","0.00","0.00"
"04:34:59","73.7","69.9","88","30.20","148","1.6","4","0.00","0.00"
"04:39:58","73.6","69.8","88","30.20","140","0.8","4","0.00","0.00"
"04:44:57","73.6","69.8","88","30.20","139","1.4","4","0.00","0.00"
"04:49:59","73.5","69.7","88","30.20","154","1.6","4","0.00","0.00"
"04:54:58","73.4","69.6","88","30.20","159","1.1","4","0.00","0.00"
"04:59:57","73.3","69.8","88.8","30.21","159","0.7","3.5","0.00","0.00"
"05:04:58","73.2","69.8","89","30.21","159","0.5","2.3","0.00","0.00"
"05:09:56","73.1","69.7","89","30.21","160","1.1","3.5","0.00","0.00"
"05:14:58","73","69.6","89","30.21","164","0.4","2.3","0.00","0.00"
"05:19:57","73","69.6","89","30.21","164","1.5","3.5","0.00","0.00"
"05:24:56","72.9","69.5","89","30.21","164","0.8","3.5","0.00","0.00"
"05:29:59","72.8","69.4","89.1","30.21","165","0.7","3.5","0.00","0.00"
"05:34:57","72.7","69.6","90","30.21","165","0.9","3.5","0.00","0.00"
"05:39:59","72.7","69.6","90","30.21","181","0.7","4","0.00","0.00"
"05:44:59","72.6","69.5","90","30.22","178","0.8","2.3","0.00","0.00"
"05:49:56","72.6","69.5","90","30.22","178","1","3.5","0.00","0.00"
"05:54:56","72.6","69.5","90","30.22","146","1.1","4","0.00","0.00"
"05:59:56","72.6","69.5","90","30.22","140","0.9","4","0.00","0.00"
"06:04:58","72.5","69.4","90","30.22","148","1.3","3.5","0.00","0.00"
"06:09:57","72.5","69.4","90","30.22","140","0.9","3.5","0.00","0.00"
"06:14:57","72.5","69.4","90","30.23","164","1.5","4","0.00","0.00"
"06:19:56","72.5","69.4","90","30.23","185","2.3","4","0.00","0.00"
"06:24:59","72.5","69.4","90","30.23","173","0.9","3.5","0.00","0.00"
"06:29:58","72.5","69.4","90","30.23","150","0.8","3.5","0.00","0.00"
"06:34:56","72.6","69.5","90","30.23","165","1.3","4","0.00","0.00"
"06:39:58","72.6","69.5","90","30.23","176","1.4","4","0.00","0.00"
"06:44:57","72.6","69.5","90","30.24","183","1.7","4","0.00","0.00"
"06:49:56","72.7","69.6","90","30.24","195","2.2","5","0.00","0.00"
"06:54:59","72.8","69.7","90","30.24","163","1.8","4.6","0.00","0.00"
"06:59:57","72.9","69.8","90","30.24","151","1.8","4","0.00","0.00"
"07:04:58","73","69.9","90","30.24","171","1.9","5","0.00","0.00"
"07:09:56","73.2","69.9","89.3","30.24","169","1.9","4","0.00","0.00"
"07:14:58","73.4","70.1","89.3","30.24","145","2.2","5","0.00","0.00"
"07:19:57","73.6","70.2","89","30.24","168","3","6","0.00","0.00"
"07:24:56","73.8","70.4","89","30.24","182","2.6","5","0.00","0.00"
"07:29:59","74.1","70.6","89","30.24","187","1.2","3.5","0.00","0.00"
"07:34:58","74.4","70.8","88.6","30.24","177","1.1","3.5","0.00","0.00"
"07:39:56","74.7","70.9","88","30.24","176","1.7","5","0.00","0.00"
"07:44:56","75.1","71","87","30.24","176","2.3","5","0.00","0.00"
"07:49:55","75.4","71.1","86.5","30.24","200","2.4","5","0.00","0.00"
"07:54:58","75.7","71.3","86.2","30.24","211","2.4","5","0.00","0.00"
"07:59:58","75.9","71.5","86.2","30.25","225","2.1","5","0.00","0.00"
"08:04:59","76.2","71.5","85.4","30.25","187","2.9","6","0.00","0.00"
"08:09:57","76.5","72","86","30.25","202","1.8","5","0.00","0.00"
"08:14:58","76.9","71.9","84.6","30.26","201","2.7","8","0.00","0.00"
"08:19:57","77.3","72","83.7","30.26","187","2.4","8.1","0.00","0.00"
"08:24:59","77.7","72.3","83.3","30.26","204","1.8","4","0.00","0.00"
"08:29:58","78.1","72.7","83.3","30.26","199","1.8","5","0.00","0.00"
"08:34:57","78.4","72.4","81.9","30.26","188","3","9.2","0.00","0.00"
"08:39:55","78.6","72.6","82.2","30.26","181","2.5","5","0.00","0.00"
"08:44:58","78.9","72.9","82.2","30.26","191","1.5","3.5","0.00","0.00"
"08:49:59","79.2","73.2","81.8","30.25","174","2.3","5","0.00","0.00"
"08:54:59","79.5","72.9","80.3","30.25","181","2.6","6","0.00","0.00"
"08:59:59","79.7","72.9","79.7","30.26","178","3.8","9","0.00","0.00"
"09:04:57","79.8","73.1","80","30.26","192","2.9","5.8","0.00","0.00"
"09:09:59","80.1","73.4","80","30.26","187","2.8","6","0.00","0.00"
"09:14:57","80.3","73.5","79.7","30.26","181","1.7","4","0.00","0.00"
"09:19:58","80.7","73.7","79.5","30.26","177","1.5","4","0.00","0.00"
"09:24:56","81.2","73.9","78.6","30.26","179","2.4","5","0.00","0.00"
"09:29:58","81.5","74.2","78.5","30.26","175","1.4","4","0.00","0.00"
"09:34:56","81.9","74.3","77.7","30.25","196","1.9","5","0.00","0.00"
"09:39:56","82.2","74.1","76.6","30.25","191","2.1","4","0.00","0.00"
"09:44:59","82.5","74.6","77.1","30.25","201","2","6","0.00","0.00"
"09:49:56","82.7","74.2","75.6","30.25","273","2.7","6","0.00","0.00"
"09:54:59","82.7","74.4","75.8","30.25","189","3","7","0.00","0.00"
"09:59:56","83","74.7","76.3","30.25","213","2","4","0.00","0.00"
"10:04:58","83.3","74.9","76.1","30.24","183","1.9","4","0.00","0.00"
"10:09:52","83.7","75.2","75.8","30.24","175","2.1","7","0.00","0.00"
"10:14:57","84","75","74.6","30.24","140","2.1","6.9","0.00","0.00"
"10:19:59","84.2","75","73.9","30.24","189","2.2","5","0.00","0.00"
"10:24:57","84.4","75.2","74.1","30.24","181","2.1","6","0.00","0.00"
"10:29:59","84.7","75.2","73.2","30.24","159","2","6","0.00","0.00"
"10:34:57","85","75.5","73.3","30.24","164","2.3","5.8","0.00","0.00"
"10:39:57","85.4","75.7","72.9","30.24","188","2.5","6","0.00","0.00"
"10:44:55","85.7","75.5","71.9","30.24","150","2.1","6","0.00","0.00"
"10:49:57","86.1","76.2","72.6","30.24","167","2","4.6","0.00","0.00"
"10:54:59","86.4","75.9","71","30.24","185","2.8","7","0.00","0.00"
"10:59:57","86.5","75.6","70.2","30.24","263","1.5","4","0.00","0.00"
"11:04:59","86.5","76","70.9","30.24","258","2.5","6","0.00","0.00"
"11:09:57","86.5","75.7","70.4","30.24","205","2.5","6","0.00","0.00"
"11:14:58","86.7","75.9","70.3","30.24","183","2.2","5","0.00","0.00"
"11:19:56","87.2","75.9","69.2","30.24","198","1.6","3.5","0.00","0.00"
"11:24:57","87.6","76.4","69.5","30.24","209","1.3","4","0.00","0.00"
"11:29:58","87.7","76","68.4","30.24","221","2.4","9.2","0.00","0.00"
"11:34:56","87.5","76.1","69.1","30.24","221","2.5","5","0.00","0.00"
"11:39:56","87.5","75.8","68.5","30.24","198","2.1","6","0.00","0.00"
"11:44:58","87.5","76.5","69.8","30.24","253","2.6","5","0.00","0.00"
"11:49:56","87.7","76.1","68.5","30.24","200","1.6","5","0.00","0.00"
"11:54:58","88","76.2","68.1","30.24","206","2.7","5","0.00","0.00"
"11:59:59","88.3","76","67.2","30.24","221","1.4","4","0.00","0.00"
"12:04:57","88.8","77","68.4","30.24","189","2","6","0.00","0.00"
"12:09:59","88.9","76.3","66.5","30.24","187","1.9","5.8","0.00","0.00"
"12:14:56","89.1","76.8","67.2","30.24","202","0.8","4","0.00","0.00"
"12:19:57","89.3","76.4","66","30.23","184","2.9","6","0.00","0.00"
"12:24:56","89.5","75.8","64.2","30.23","138","1.6","3.5","0.00","0.00"
"12:29:57","89.8","76","64","30.23","128","2","4","0.00","0.00"
"12:34:59","89.8","75.5","63","30.23","121","1.7","6","0.00","0.00"
"12:39:56","90","75.8","63.1","30.23","108","1.1","3.5","0.00","0.00"
"12:44:58","90.1","75.3","62.1","30.23","116","0.8","5","0.00","0.00"
"12:49:59","90.4","76.2","63.3","30.23","201","2.5","5","0.00","0.00"
"12:54:57","90.7","76.8","63.8","30.23","198","2.7","6","0.00","0.00"
"12:59:58","90.9","75.9","61.6","30.23","189","2.5","5","0.00","0.00"
"13:04:56","90.8","76.2","62.3","30.22","140","1.8","4.6","0.00","0.00"
"13:09:56","90.9","76.2","62.4","30.22","136","2.3","5","0.00","0.00"
"13:14:58","90.9","76","61.8","30.22","180","2.9","7","0.00","0.00"
"13:19:56","90.8","76","61.9","30.22","182","1.9","5","0.00","0.00"
"13:24:58","90.9","76.7","63.1","30.22","178","3","7","0.00","0.00"
"13:29:56","91","75.8","61.2","30.22","198","2.7","5","0.00","0.00"
"13:34:59","91.1","76.6","62.7","30.22","175","3","10.4","0.00","0.00"
"13:39:57","91.3","76.9","63","30.22","183","3.3","10.4","0.00","0.00"
"13:44:59","91.3","76","61","30.22","162","2.3","5","0.00","0.00"
"13:49:57","91","75.8","61.1","30.22","178","2.3","4.6","0.00","0.00"
"13:54:58","90.9","77.2","64.3","30.22","152","2.2","6","0.00","0.00"
"13:59:59","91.2","76.2","61.5","30.22","127","3.2","7","0.00","0.00"
"14:04:59","91","75.9","61.4","30.21","194","2.9","6","0.00","0.00"
"14:09:57","90.9","76.7","63.4","30.21","185","3.2","7","0.00","0.00"
"14:14:58","91.2","75.4","60","30.21","190","2.7","5.8","0.00","0.00"
"14:19:59","91.3","76","61.2","30.21","180","1.6","6","0.00","0.00"
"14:24:56","91.6","76.6","61.7","30.21","183","3.7","9","0.00","0.00"
"14:29:58","91.9","76.7","61.2","30.21","189","3.3","6","0.00","0.00"
"14:34:56","91.9","74.4","56.8","30.21","170","2.1","6","0.00","0.00"
"14:39:56","91.2","75.2","59.8","30.21","170","2.6","9","0.00","0.00"
"14:44:58","90.4","75","60.8","30.21","182","2.9","10","0.00","0.00"
"14:49:56","90.2","74.7","60.6","30.21","163","2.1","5","0.00","0.00"
"14:54:56","90.7","75.8","61.8","30.21","182","2.3","6","0.00","0.00"
"14:59:58","90.9","74.8","59.3","30.21","189","3.3","7","0.00","0.00"
"15:04:59","90.5","74.6","59.6","30.21","162","2.4","6.9","0.00","0.00"
"15:09:57","90.3","74.4","59.8","30.21","160","2","4","0.00","0.00"
"15:14:59","90.2","75.3","61.8","30.21","175","2.9","8","0.00","0.00"
"15:19:56","90.4","75.5","61.8","30.21","166","2.7","6.9","0.00","0.00"
"15:24:57","91.1","76","61.4","30.21","169","3.3","6","0.00","0.00"
"15:29:58","91","75.1","59.8","30.21","183","3","5.8","0.00","0.00"
"15:34:59","90.6","75.8","62.1","30.21","178","2.8","7","0.00","0.00"
"15:39:56","91","76.1","61.8","30.21","188","2.9","7","0.00","0.00"
"15:44:58","91.6","75.9","60.4","30.21","153","1.8","4","0.00","0.00"
"15:49:55","92.4","77.4","61.7","30.20","186","3.1","9.2","0.00","0.00"
"15:54:57","92.8","76.2","58.8","30.20","149","4","10.4","0.00","0.00"
"15:59:58","92.9","76.6","59.2","30.20","153","3.8","9","0.00","0.00"
"16:04:58","93.1","78","61.6","30.20","178","3.1","8.1","0.00","0.00"
"16:09:59","93.2","76.8","59.3","30.20","158","3.3","9","0.00","0.00"
"16:14:59","93.1","76.6","58.9","30.20","168","3.8","10","0.00","0.00"
"16:19:57","93","75.9","57.7","30.20","149","3.3","9","0.00","0.00"
"16:24:58","93.1","76.9","59.6","30.20","177","3.2","9.2","0.00","0.00"
"16:29:59","93.3","77.3","60","30.20","193","3.2","7","0.00","0.00"
"16:34:56","93.4","75.9","56.9","30.19","173","4.4","10","0.00","0.00"
"16:39:57","93.1","76.3","58.4","30.19","126","3.7","10.4","0.00","0.00"
"16:44:57","92.5","76.4","59.7","30.19","177","4.2","11.5","0.00","0.00"
"16:49:58","92.1","77","61.7","30.19","173","3.9","10","0.00","0.00"
"16:54:56","91.7","76.4","61.1","30.19","123","4.3","9.2","0.00","0.00"
"16:59:57","91.6","76.6","61.8","30.19","176","3.8","10","0.00","0.00"
"17:04:58","91.6","76.7","62.2","30.19","131","4.2","12","0.00","0.00"
"17:09:59","91.5","76.8","62.5","30.19","156","3.9","9","0.00","0.00"
"17:14:59","91.5","76.4","61.4","30.19","123","3.9","9.2","0.00","0.00"
"17:19:59","91.4","77","62.9","30.19","170","2.9","6","0.00","0.00"
"17:24:56","91.4","76.8","62.5","30.19","171","2.8","5","0.00","0.00"
"17:29:56","91.5","76.8","62.3","30.19","145","3.9","11.5","0.00","0.00"
"17:34:56","91.2","76.2","61.7","30.18","133","4","10.4","0.00","0.00"
"17:39:56","91.1","76.3","62","30.18","150","3.5","6.9","0.00","0.00"
"17:44:57","91.3","76.7","62.5","30.18","198","3.3","9","0.00","0.00"
"17:49:57","91.5","76.2","61.1","30.18","171","5.4","13","0.00","0.00"
"17:54:58","91.5","75.3","59.4","30.18","153","5.1","11","0.00","0.00"
"17:59:58","91.3","76","60.9","30.18","190","4.8","11.5","0.00","0.00"
"18:04:59","91.3","76.1","61.3","30.18","173","3.3","10.4","0.00","0.00"
"18:09:56","91.3","75.6","60.2","30.18","152","3.6","10.4","0.00","0.00"
"18:14:56","91.3","75.7","60.5","30.18","184","3.2","10","0.00","0.00"
"18:19:56","91.1","75.4","60.3","30.18","176","3.5","11","0.00","0.00"
"18:24:56","90.8","75.6","61.2","30.18","161","2.6","6.9","0.00","0.00"
"18:29:57","90.5","75.6","61.6","30.18","187","3.5","7","0.00","0.00"
"18:34:57","90.1","75","61.3","30.18","169","4.2","7","0.00","0.00"
"18:39:57","90","75","61.7","30.18","169","3.2","6.9","0.00","0.00"
"18:44:58","89.8","75.2","62.3","30.19","186","2.7","7","0.00","0.00"
"18:49:58","89.6","74.8","62","30.19","176","3.4","9","0.00","0.00"
"18:54:59","89.3","74.7","62.2","30.19","162","3.7","9.2","0.00","0.00"
"18:59:59","89.1","74.6","62.4","30.19","203","3.8","9.2","0.00","0.00"
"19:04:56","88.9","74.6","62.9","30.19","170","2.8","6.9","0.00","0.00"
"19:09:57","88.6","74.5","63.2","30.19","168","3","5","0.00","0.00"
"19:14:58","88.5","74.4","63.1","30.19","136","2.7","6","0.00","0.00"
"19:19:59","88.4","74.7","64.2","30.19","160","1.9","6","0.00","0.00"
"19:24:56","88.1","74.4","64","30.19","158","2.1","7","0.00","0.00"
"19:29:56","87.9","73.8","63.1","30.19","150","3.6","7","0.00","0.00"
"19:34:57","87.8","73.7","63.2","30.19","157","2.7","7","0.00","0.00"
"19:39:57","87.6","73.6","63.3","30.19","156","2.7","5","0.00","0.00"
"19:44:58","87.5","73.5","63.3","30.19","165","2.1","7","0.00","0.00"
"19:49:58","87.5","73.6","63.6","30.19","156","2.6","5","0.00","0.00"
"19:54:59","87.3","73.7","64.1","30.19","155","1.7","5","0.00","0.00"
"19:59:56","87.1","73.5","64.2","30.20","157","1.8","4","0.00","0.00"
"20:04:57","86.9","73.5","64.4","30.20","158","1.6","4","0.00","0.00"
"20:09:56","86.8","73.5","64.9","30.20","149","1.3","3.5","0.00","0.00"
"20:14:56","86.4","73.5","65.7","30.20","160","1.8","4","0.00","0.00"
"20:19:57","86.1","73.4","66.1","30.20","166","1.8","4","0.00","0.00"
"20:24:58","85.8","73.2","66.2","30.20","160","1.7","4","0.00","0.00"
"20:29:56","85.7","73.3","66.5","30.20","157","1.4","4","0.00","0.00"
"20:34:57","85.5","73.1","66.6","30.20","158","1.9","3.5","0.00","0.00"
"20:39:57","85.4","72.9","66.3","30.20","167","2.2","4","0.00","0.00"
"20:44:59","85.4","73","66.6","30.20","159","2","5","0.00","0.00"
"20:49:56","85.2","73","67","30.20","252","1.3","4.6","0.00","0.00"
"20:54:58","85","72.8","67","30.20","166","1.3","4","0.00","0.00"
"20:59:59","84.8","72.6","67","30.20","162","1.7","4","0.00","0.00"
"21:04:56","84.6","72.4","67","30.20","155","1.8","4","0.00","0.00"
"21:09:59","84.4","72.2","67","30.20","166","1.1","3.5","0.00","0.00"
"21:14:59","84.2","72.4","67.8","30.20","165","0.8","2.3","0.00","0.00"
"21:19:56","84","72.3","68","30.20","162","1.3","3.5","0.00","0.00"
"21:24:57","83.8","72.2","68.2","30.20","150","1.5","5","0.00","0.00"
"21:29:58","83.6","72","68.2","30.21","162","1.4","4.6","0.00","0.00"
"21:34:59","83.5","71.9","68.3","30.21","159","1.5","4","0.00","0.00"
"21:39:59","83.2","72","69","30.21","193","1.6","5","0.00","0.00"
"21:44:58","83","71.8","69","30.21","201","1.3","3.5","0.00","0.00"
"21:49:59","82.9","71.7","69","30.21","154","1","3.5","0.00","0.00"
"21:54:56","82.9","71.7","69","30.21","138","0.8","3.5","0.00","0.00"
"21:59:56","82.8","71.9","69.6","30.22","142","0.9","3.5","0.00","0.00"
"22:04:58","82.8","72","70","30.22","147","1.4","4","0.00","0.00"
"22:09:56","82.7","71.9","70","30.22","148","0.8","2.3","0.00","0.00"
"22:14:57","82.5","71.7","70","30.22","148","0.7","2.3","0.00","0.00"
"22:19:58","82.3","71.9","70.9","30.22","142","0.7","3.5","0.00","0.00"
"22:24:59","82.1","71.8","71","30.22","139","0.9","2.3","0.00","0.00"
"22:29:56","81.9","71.7","71.3","30.22","139","0.6","2.3","0.00","0.00"
"22:34:57","81.8","71.9","72","30.22","138","1.1","3","0.00","0.00"
"22:39:57","81.6","71.7","72","30.22","141","1.7","4","0.00","0.00"
"22:44:58","81.6","71.9","72.4","30.22","138","1.6","4","0.00","0.00"
"22:49:59","81.4","71.9","73","30.22","123","1.2","3.5","0.00","0.00"
"22:54:57","81.2","71.7","73","30.22","154","1.2","4","0.00","0.00"
"22:59:57","81","71.7","73.7","30.23","152","1.1","3.5","0.00","0.00"
"23:04:59","80.8","71.7","74","30.23","153","0.9","3.5","0.00","0.00"
"23:09:58","80.5","71.6","74.5","30.23","153","0.7","3.5","0.00","0.00"
"23:14:58","80.3","71.6","75","30.23","153","0.4","2.3","0.00","0.00"
"23:19:59","80","71.7","75.8","30.23","153","0.1","1.2","0.00","0.00"
"23:24:56","79.7","71.6","76.4","30.23","153","0.4","2.3","0.00","0.00"
"23:29:57","79.4","71.6","77","30.24","153","1.1","3","0.00","0.00"
"23:34:58","79","71.5","77.9","30.24","164","1.2","4","0.00","0.00"
"23:39:56","78.7","71.3","78","30.24","177","1.5","3.5","0.00","0.00"
"23:44:58","78.5","71.1","78","30.24","177","1","3.5","0.00","0.00"
"23:49:56","78.5","71.1","78","30.24","177","1.3","3.5","0.00","0.00"
"23:54:59","78.5","71.1","78.1","30.24","177","0.8","3.5","0.00","0.00"
"23:59:57","78.3","71.2","79","30.24","178","0.4","2.3","0.00","0.00"
